Location: Arnolds Mill
(42.3415°N, 73.5951°W)
Time: 11:18:38
(UTC+00:00)

BlueWalker 3 - Pass Details

Date: 28 June 2024
Orbit: 480 x 492 km, 53.2° (Epoch: 13 July)

Event Time Altitude Azimuth Distance (km) Brightness Sun altitude
Rises 03:33:13 0° 310° (NW) 2,542 6.5 -21.6°
Reaches altitude 10° 03:35:41 10° 325° (NW) 1,659 5.6 -21.7°
Maximum altitude 03:38:48 24° 21° (NNE) 1,031 4.0 -21.9°
Enters shadow 03:41:12 14° 70° (ENE) 1,438 4.2 -22.1°
